EW7643 Weather Reports


Display with metric or nautical units.
time (UTC)temp
F
wind
direction
speed
MPH
gust
MPH
rain 1hr
in
rain 24hr
in
rain mn
in
humidity
%
barometer
mb
20260505071508 71 108 0.0 0.0 0.00 0.00 0.00 79 1010.1
20260505070014 71 115 0.0 0.0 0.00 0.00 0.00 79 1010.2
20260505064520 70 115 0.0 0.0 0.00 0.00 0.00 79 1010.5
20260505063022 70 124 0.0 0.0 0.00 0.00 0.00 78 1010.9
20260505061525 70 130 0.0 0.0 0.00 0.00 0.00 79 1010.9
20260505060012 69 103 0.0 0.0 0.00 0.00 0.00 78 1010.9
20260505054516 69 120 0.0 0.0 0.00 0.00 0.00 79 1011.1
20260505053030 69 120 0.0 0.0 0.00 0.00 0.00 79 1011.1
20260505051535 69 120 0.0 0.0 0.00 0.00 0.00 80 1011.1
20260505041525 69 120 0.0 0.0 0.00 0.00 0.00 81 1011.6
20260505040025 69 120 0.0 0.0 0.00 0.00 0.00 81 1011.6
20260505034522 70 120 0.0 0.0 0.00 0.00 0.00 81 1011.8
20260505033012 70 120 0.0 0.0 0.00 0.00 0.00 80 1011.7
20260505031521 70 120 0.0 0.0 0.00 0.00 0.00 80 1011.7
20260505030023 70 116 0.0 0.0 0.00 0.00 0.00 80 1011.8
20260505024526 71 112 0.0 0.0 0.00 0.00 0.00 80 1011.9
20260505023026 71 115 0.0 0.0 0.00 0.00 0.00 79 1011.6
20260505021516 72 127 0.0 0.0 0.00 0.00 0.00 78 1011.6
20260505020004 72 123 0.0 0.0 0.00 0.00 0.00 78 1011.6
20260505014504 72 115 0.0 0.0 0.00 0.00 0.00 77 1011.5
20260505013009 72 113 0.0 0.0 0.00 0.00 0.00 77 1011.4
20260505011513 72 116 0.0 0.0 0.00 0.00 0.00 76 1011.4
20260505010029 73 120 0.0 0.0 0.00 0.00 0.00 75 1011.3
20260505004503 73 115 0.0 0.0 0.00 0.00 0.00 74 1011.2
20260505003009 74 93 0.0 0.0 0.00 0.00 0.00 73 1011.2
20260505001508 74 105 0.0 4.0 0.00 0.00 0.00 72 1011.2
20260505000023 75 121 0.0 6.0 0.00 0.00 0.00 71 1011.4
20260504234516 75 112 2.0 10.0 0.00 0.00 0.00 70 1011.4
20260504233013 76 120 1.0 7.0 0.00 0.00 0.00 69 1011.6
20260504231504 77 125 0.0 0.0 0.00 0.00 0.00 69 1011.7
20260504230008 77 137 0.0 0.0 0.00 0.00 0.00 69 1011.9
20260504224515 77 99 0.0 0.0 0.00 0.00 0.00 68 1011.9
20260504223020 76 116 0.0 0.0 0.00 0.00 0.00 69 1012.2
20260504221512 76 120 0.0 0.0 0.00 0.00 0.00 68 1012.5
20260504220007 76 126 0.0 0.0 0.00 0.00 0.00 68 1012.5
20260504214510 77 98 0.0 0.0 0.00 0.00 0.00 66 1012.7
20260504213018 78 172 0.0 5.0 0.00 0.00 0.00 64 1012.8
20260504211522 79 224 0.0 6.0 0.00 0.00 0.00 63 1012.8
20260504210006 79 122 1.0 6.0 0.00 0.00 0.00 62 1013.1
20260504204506 80 105 0.0 3.0 0.00 0.00 0.00 61 1013.1
20260504203014 79 167 0.0 0.0 0.00 0.00 0.00 61 1013.4
20260504201523 81 96 0.0 6.0 0.00 0.00 0.00 60 1013.5
20260504200023 81 134 0.0 7.0 0.00 0.00 0.00 58 1013.8
20260504194507 81 117 0.0 0.0 0.00 0.00 0.00 59 1013.7
20260504193011 81 108 0.0 1.0 0.00 0.00 0.00 59 1014.1
20260504191522 81 76 0.0 0.0 0.00 0.00 0.00 60 1014.3
20260504190017 80 129 0.0 0.0 0.00 0.00 0.00 59 1014.4
20260504184522 81 106 0.0 5.0 0.00 0.00 0.00 59 1014.4
20260504183009 80 101 0.0 0.0 0.00 0.00 0.00 58 1014.5
20260504181517 81 84 0.0 0.0 0.00 0.00 0.00 59 1014.7
20260504180020 80 103 0.0 6.0 0.00 0.00 0.00 57 1015.0
20260504174520 80 165 0.0 4.0 0.00 0.00 0.00 58 1015.1
20260504173024 80 105 2.0 8.0 0.00 0.00 0.00 56 1015.4
20260504171509 80 131 0.0 3.0 0.00 0.00 0.00 57 1015.4
20260504081529 55 109 0.0 0.0 0.00 0.02 0.00 79 1016.8